VE2BTZ Weather Reports


time (UTC)temp
F
wind
direction
speed
knots
gust
knots
rain 1hr
in
rain 24hr
in
rain mn
in
humidity
%
barometer
mb
20260510222503 56 286 7.8 13.0 0.00 0.03 0.03 53 1013.2
20260510222003 56 266 6.1 10.4 0.00 0.03 0.03 53 1013.2
20260510221503 56 268 6.1 11.3 0.00 0.03 0.03 54 1013.1
20260510221003 56 273 4.3 12.2 0.00 0.03 0.03 54 1013.0
20260510220504 56 271 7.0 12.2 0.00 0.03 0.03 53 1012.9
20260510220004 56 274 6.1 12.2 0.00 0.03 0.03 53 1012.8
20260510214504 59 283 6.1 13.0 0.00 0.03 0.03 51 1012.7
20260510214003 59 291 5.2 11.3 0.00 0.03 0.03 52 1012.6
20260510213502 59 267 7.8 14.8 0.00 0.03 0.03 51 1012.5
20260510213004 60 281 6.1 13.0 0.00 0.03 0.03 47 1012.4
20260510212503 60 280 11.3 17.4 0.00 0.03 0.03 46 1012.2
20260510212003 59 263 6.1 14.8 0.00 0.03 0.03 45 1012.1
20260510211503 58 245 7.8 21.7 0.00 0.03 0.03 45 1012.1
20260510211003 58 267 10.4 17.4 0.00 0.03 0.03 44 1012.0
20260510210503 58 265 11.3 19.1 0.00 0.03 0.03 44 1012.0
20260510210004 59 264 11.3 21.7 0.00 0.03 0.03 42 1011.8
20260510205504 60 260 7.0 13.0 0.00 0.03 0.03 42 1011.8
20260510205003 61 262 10.4 15.6 0.00 0.03 0.03 41 1011.6
20260510204504 61 256 7.8 13.9 0.00 0.03 0.03 42 1011.6
20260510204003 62 253 8.7 13.0 0.00 0.03 0.03 40 1011.4
20260510203504 61 275 6.1 17.4 0.00 0.03 0.03 42 1011.4
20260510203004 61 251 6.1 17.4 0.00 0.03 0.03 42 1011.3
20260510202503 61 256 7.0 13.9 0.00 0.03 0.03 43 1011.3
20260510202003 61 289 10.4 18.2 0.00 0.03 0.03 43 1011.3
20260510201003 60 255 6.1 13.9 0.00 0.03 0.03 44 1011.2
20260510200503 60 258 7.0 13.0 0.00 0.03 0.03 45 1011.3
20260510200003 60 257 6.1 13.0 0.00 0.03 0.03 46 1011.3
20260510195503 59 255 7.8 15.6 0.00 0.03 0.03 45 1011.3
20260510195004 59 251 7.0 15.6 0.00 0.03 0.03 46 1011.3
20260510194504 59 255 7.8 15.6 0.00 0.03 0.03 47 1011.4
20260510194003 58 253 7.8 13.9 0.00 0.03 0.03 48 1011.5
20260510193003 59 261 7.8 17.4 0.00 0.03 0.03 47 1011.3
20260510192503 59 275 8.7 17.4 0.00 0.03 0.03 47 1011.3
20260510191504 60 254 10.4 20.0 0.00 0.03 0.03 44 1011.3
20260510191004 60 277 7.8 13.9 0.00 0.03 0.03 48 1011.2
20260510190503 60 272 8.7 17.4 0.00 0.03 0.03 45 1011.1
20260510185503 61 268 8.7 17.4 0.00 0.03 0.03 45 1011.0
20260510185003 61 255 8.7 17.4 0.00 0.03 0.03 45 1010.8
20260510184503 61 257 7.8 13.9 0.00 0.03 0.03 45 1010.8
20260510184003 60 268 12.2 20.0 0.00 0.03 0.03 44 1010.7
20260510183503 60 272 7.8 15.6 0.00 0.03 0.03 46 1010.7
20260510183003 60 264 10.4 21.7 0.00 0.03 0.03 45 1010.5
20260510182504 60 281 6.1 17.4 0.00 0.03 0.03 46 1010.6
20260510182003 61 263 10.4 20.9 0.00 0.03 0.03 45 1010.6
20260510181503 61 280 8.7 17.4 0.00 0.03 0.03 46 1010.5
20260510181003 60 264 8.7 18.2 0.00 0.03 0.03 46 1010.5
20260510180503 60 276 4.3 13.9 0.00 0.03 0.03 48 1010.4
20260510175503 60 276 8.7 20.9 0.00 0.03 0.03 46 1010.4
20260510175003 60 271 7.8 14.8 0.00 0.03 0.03 48 1010.4
20260510174503 60 282 7.8 13.0 0.00 0.03 0.03 48 1010.3
20260510174003 60 279 8.7 14.8 0.00 0.03 0.03 47 1010.3
20260510173503 60 276 6.1 14.8 0.00 0.03 0.03 49 1010.4
20260510173004 59 275 9.6 15.6 0.00 0.03 0.03 49 1010.4
20260510172503 60 272 7.8 17.4 0.00 0.03 0.03 47 1010.3
20260510172003 60 270 10.4 18.2 0.00 0.03 0.03 47 1010.3
20260510171003 60 266 8.7 19.1 0.00 0.03 0.03 46 1010.2
20260510170504 61 267 7.8 15.6 0.00 0.03 0.03 46 1010.2
20260510170003 61 260 7.8 15.6 0.00 0.03 0.03 47 1010.1
20260510165503 60 271 5.2 17.4 0.00 0.03 0.03 46 1010.0
20260510165003 60 266 8.7 17.4 0.00 0.03 0.03 43 1010.1
20260510164503 60 259 4.3 12.2 0.00 0.03 0.03 44 1010.0
20260510164003 60 256 9.6 17.4 0.00 0.03 0.03 42 1010.0
20260510163003 60 258 6.1 15.6 0.00 0.03 0.03 45 1009.8
20260510162503 60 244 6.1 17.4 0.00 0.03 0.03 45 1009.8
20260510162003 60 265 7.8 14.8 0.00 0.03 0.03 46 1009.9
20260510161503 59 235 6.1 17.4 0.00 0.03 0.03 46 1009.9
20260510161003 59 273 10.4 21.7 0.00 0.03 0.03 45 1009.8
20260510160503 60 271 9.6 15.6 0.00 0.03 0.03 44 1009.8
20260510160003 60 272 7.0 12.2 0.00 0.03 0.03 46 1009.7
20260510155503 60 259 7.0 13.0 0.00 0.03 0.03 46 1009.8
20260510155003 60 246 5.2 14.8 0.00 0.03 0.03 47 1009.7
20260510154003 59 262 7.8 17.4 0.00 0.03 0.03 46 1009.6
20260510153003 59 268 7.8 14.8 0.00 0.03 0.03 45 1009.7
20260510152504 59 250 8.7 17.4 0.00 0.03 0.03 47 1009.6
20260510152003 59 253 11.3 17.4 0.00 0.03 0.03 47 1009.6
20260510151003 58 264 6.1 15.6 0.00 0.03 0.03 52 1009.5
20260510150503 58 260 6.1 13.9 0.00 0.03 0.03 53 1009.5
20260510150003 58 263 4.3 13.9 0.00 0.03 0.03 54 1009.5
20260510145503 58 266 7.8 15.6 0.00 0.03 0.03 54 1009.5
20260510145003 58 257 6.1 13.0 0.00 0.03 0.03 55 1009.4
20260510144503 57 253 6.1 14.8 0.00 0.03 0.03 55 1009.5
20260510144003 58 257 9.6 17.4 0.00 0.03 0.03 53 1009.5
20260510143503 57 247 5.2 13.9 0.00 0.03 0.03 56 1009.5
20260510143003 58 249 4.3 13.0 0.00 0.03 0.03 56 1009.5
20260510142504 57 240 5.2 13.0 0.00 0.03 0.03 56 1009.4
20260510142004 57 275 5.2 17.4 0.00 0.03 0.03 57 1009.3
20260510141503 57 259 7.8 18.2 0.00 0.03 0.03 58 1009.3
20260510141004 57 246 7.0 12.2 0.00 0.03 0.03 58 1009.2
20260510140003 57 257 6.1 13.9 0.00 0.03 0.03 57 1009.1
20260510135503 57 267 6.1 12.2 0.00 0.03 0.03 57 1009.2
20260510134504 56 252 7.8 13.0 0.00 0.03 0.03 60 1009.1
20260510134004 56 263 5.2 12.2 0.00 0.03 0.03 62 1009.2
20260510133503 56 251 6.1 13.0 0.00 0.03 0.03 63 1009.1
20260510132503 56 266 7.8 13.9 0.00 0.03 0.03 60 1009.1
20260510132004 57 252 7.0 12.2 0.00 0.03 0.03 63 1009.0
20260510131503 57 248 3.5 11.3 0.00 0.03 0.03 64 1008.9
20260510131004 56 260 4.3 10.4 0.00 0.03 0.03 65 1009.0
20260510130503 56 258 6.1 13.0 0.00 0.03 0.03 65 1008.8
20260510130003 56 255 7.8 13.0 0.00 0.03 0.03 66 1008.7
20260510125503 56 246 5.2 17.4 0.00 0.03 0.03 68 1008.6
20260510125004 56 255 6.1 14.8 0.00 0.03 0.03 68 1008.4
20260510124503 56 250 5.2 13.0 0.00 0.03 0.03 69 1008.5
20260510123503 56 256 3.5 10.4 0.00 0.03 0.03 73 1008.4
20260510123003 55 262 9.6 17.4 0.00 0.03 0.03 73 1008.3
20260510122504 55 234 1.7 7.8 0.00 0.03 0.03 75 1008.3
20260510121004 54 289 0.9 7.8 0.00 0.03 0.03 75 1008.2
20260510120503 54 250 2.6 10.4 0.00 0.03 0.03 75 1008.1
20260510120003 53 267 1.7 7.0 0.00 0.03 0.03 75 1008.0
20260510115504 53 250 1.7 10.4 0.00 0.03 0.03 74 1008.0
20260510115003 53 254 2.6 10.4 0.00 0.03 0.03 75 1008.1
20260510114502 53 255 3.5 10.4 0.00 0.03 0.03 78 1008.0
20260510114003 53 260 2.6 8.7 0.00 0.03 0.03 79 1007.9
20260510112503 53 265 0.9 5.2 0.00 0.03 0.03 83 1007.8
20260510112004 52 240 1.7 8.7 0.00 0.03 0.03 83 1007.8
20260510111003 52 220 1.7 7.8 0.00 0.03 0.03 85 1007.7
20260510110503 52 219 1.7 7.0 0.00 0.03 0.03 86 1007.5
20260510105504 52 247 2.6 8.7 0.00 0.03 0.03 89 1007.6
20260510105003 52 238 0.9 5.2 0.00 0.03 0.03 89 1007.4
20260510104503 52 271 0.9 6.1 0.00 0.03 0.03 90 1007.2
20260510104004 51 229 0.9 2.6 0.00 0.03 0.03 90 1007.0
20260510103503 51 242 0.0 2.6 0.00 0.03 0.03 90 1007.0
20260510103003 51 264 0.0 1.7 0.00 0.03 0.03 91 1006.8
20260510102503 51 222 0.9 2.6 0.00 0.03 0.03 91 1006.9
20260510101503 51 243 0.0 0.9 0.00 0.03 0.03 91 1006.8
20260510101004 51 243 0.0 2.6 0.00 0.03 0.03 91 1006.8
20260510100004 50 237 0.0 1.7 0.00 0.03 0.03 91 1006.8
20260510095503 50 239 0.0 2.6 0.00 0.03 0.03 92 1006.6
20260510095004 50 229 0.0 1.7 0.00 0.03 0.03 91 1006.5
20260510094504 50 229 0.0 1.7 0.00 0.03 0.03 91 1006.4
20260510094003 50 182 0.0 0.0 0.00 0.03 0.03 91 1006.4
20260510093503 50 183 0.0 0.0 0.00 0.03 0.03 91 1006.3
20260510093003 50 182 0.0 0.0 0.00 0.03 0.03 91 1006.2
20260510092503 49 182 0.0 1.7 0.00 0.03 0.03 91 1006.2
20260510092003 49 174 0.0 0.0 0.00 0.03 0.03 91 1006.1
20260510091504 49 175 0.0 0.0 0.00 0.03 0.03 91 1006.0
20260510091003 49 175 0.0 0.0 0.00 0.03 0.03 91 1006.1
20260510090503 49 170 0.0 0.0 0.00 0.03 0.03 91 1006.0
20260510090004 49 170 0.0 0.0 0.00 0.03 0.03 91 1006.0
20260510085503 50 170 0.0 0.0 0.00 0.03 0.03 91 1006.0
20260510084505 50 140 0.0 0.0 0.00 0.03 0.03 91 1005.8
20260510084003 50 140 0.0 0.0 0.00 0.03 0.03 91 1005.7
20260510083503 50 140 0.0 0.0 0.00 0.03 0.03 91 1005.8
20260510083003 50 140 0.0 0.0 0.00 0.03 0.03 91 1005.7
20260510082504 50 140 0.0 2.6 0.00 0.03 0.03 91 1005.7
20260510082003 50 139 0.0 0.9 0.00 0.03 0.03 91 1005.7
20260510081504 50 140 0.9 7.0 0.00 0.03 0.03 91 1005.7
20260510081003 50 136 0.9 4.3 0.00 0.03 0.03 91 1005.6
20260510075503 50 133 0.9 2.6 0.00 0.03 0.03 91 1005.6
20260510075003 50 136 0.0 5.2 0.00 0.03 0.03 91 1005.6
20260510074503 50 153 0.9 7.0 0.00 0.03 0.03 91 1005.6
20260510073503 50 136 0.0 2.6 0.00 0.03 0.03 91 1005.5
20260510073004 50 139 0.9 2.6 0.00 0.03 0.03 91 1005.5
20260510072004 50 141 0.9 2.6 0.00 0.03 0.03 91 1005.5
20260510071504 50 144 0.9 7.0 0.00 0.03 0.03 91 1005.5
20260510071003 50 144 1.7 7.0 0.00 0.03 0.03 91 1005.3
20260510070503 51 142 1.7 6.1 0.00 0.03 0.03 91 1005.3
20260510070003 51 126 0.9 7.8 0.00 0.03 0.03 91 1005.3
20260510065503 51 140 2.6 8.7 0.00 0.03 0.03 91 1005.2
20260510065003 51 132 3.5 10.4 0.00 0.03 0.03 91 1005.2
20260510064003 51 130 0.9 6.1 0.01 0.03 0.03 91 1005.1
20260510063503 51 143 1.7 7.0 0.01 0.03 0.03 91 1005.0
20260510063003 51 131 4.3 10.4 0.01 0.03 0.03 91 1005.1
20260510062503 51 132 2.6 8.7 0.02 0.03 0.03 91 1005.1
20260510061503 51 113 2.6 7.8 0.02 0.03 0.03 91 1005.0
20260510061003 51 141 4.3 10.4 0.03 0.03 0.03 91 1005.1
20260510060504 51 148 1.7 11.3 0.03 0.03 0.03 90 1005.1
20260510060004 51 130 0.9 4.3 0.03 0.03 0.03 90 1005.2
20260510055503 51 136 1.7 7.8 0.03 0.03 0.03 90 1005.3
20260510055003 51 145 0.9 10.4 0.03 0.03 0.03 90 1005.3
20260510054003 51 152 0.9 4.3 0.02 0.02 0.02 90 1005.4
20260510053503 51 142 1.7 10.4 0.02 0.02 0.02 90 1005.4
20260510053003 51 144 0.9 7.0 0.02 0.02 0.02 89 1005.4
20260510052503 52 135 1.7 7.0 0.02 0.02 0.02 89 1005.5
20260510052003 52 156 1.7 4.3 0.01 0.01 0.01 89 1005.5
20260510051503 52 167 1.7 6.1 0.01 0.01 0.01 89 1005.4
20260510051004 52 132 1.7 7.8 0.00 0.00 0.00 88 1005.3
20260510050503 52 159 1.7 7.8 0.00 0.00 0.00 88 1005.3
20260510050004 52 132 2.6 8.7 0.00 0.00 0.00 88 1005.3
20260510045503 51 150 1.7 8.7 0.00 0.00 0.00 87 1005.4
20260510045003 51 143 1.7 10.4 0.00 0.00 0.00 87 1005.2
20260510044503 51 151 1.7 10.4 0.00 0.00 0.00 87 1005.2
20260510043503 51 143 1.7 10.4 0.00 0.00 0.00 87 1005.2
20260510043003 51 138 3.5 11.3 0.00 0.00 0.00 87 1005.2
20260510042503 51 165 2.6 13.0 0.00 0.00 0.00 87 1005.0
20260510042003 51 160 3.5 12.2 0.00 0.00 0.00 86 1004.9
20260510041503 51 156 1.7 8.7 0.00 0.00 0.00 86 1004.7
20260510041003 51 141 1.7 11.3 0.00 0.00 0.00 86 1004.8
20260510040503 51 142 4.3 18.2 0.00 0.00 0.00 86 1004.7
20260510040004 51 149 5.2 18.2 0.00 0.00 0.00 86 1004.8
20260510035003 51 133 5.2 13.9 0.00 0.00 0.00 86 1004.9
20260510034503 51 157 2.6 10.4 0.00 0.00 0.00 86 1004.9
20260510033503 51 151 4.3 12.2 0.00 0.00 0.00 87 1004.9
20260510033003 51 158 4.3 11.3 0.00 0.00 0.00 87 1005.1
20260510032503 51 131 5.2 17.4 0.00 0.00 0.00 87 1005.2
20260510032003 51 141 2.6 10.4 0.00 0.00 0.00 87 1005.1
20260510031503 51 130 4.3 10.4 0.00 0.00 0.00 87 1005.2
20260510031003 51 141 4.3 10.4 0.00 0.00 0.00 87 1005.1
20260510030504 51 127 1.7 10.4 0.00 0.00 0.00 87 1005.1
20260510030003 51 139 2.6 7.8 0.00 0.00 0.00 87 1005.2
20260510025003 51 138 4.3 10.4 0.00 0.00 0.00 87 1005.4
20260510024503 51 173 2.6 10.4 0.00 0.00 0.00 87 1005.5
20260510024004 51 140 3.5 15.6 0.00 0.00 0.00 87 1005.6
20260510023003 51 132 2.6 8.7 0.00 0.00 0.00 87 1005.8
20260510022503 51 134 3.5 13.0 0.00 0.00 0.00 87 1005.8
20260510022004 51 130 2.6 13.0 0.00 0.00 0.00 86 1006.0
20260510021003 51 138 2.6 12.2 0.00 0.00 0.00 86 1006.0
20260510020503 51 140 4.3 10.4 0.00 0.00 0.00 86 1006.1
20260510020004 51 128 1.7 10.4 0.00 0.00 0.00 85 1006.0
20260510015003 51 168 1.7 10.4 0.00 0.00 0.00 85 1006.2
20260510014503 51 130 4.3 10.4 0.00 0.00 0.00 84 1006.2
20260510014004 51 154 2.6 11.3 0.00 0.00 0.00 84 1006.5
20260510013003 51 108 1.7 12.2 0.00 0.00 0.00 83 1006.2
20260510012504 51 158 4.3 10.4 0.00 0.00 0.00 83 1006.3
20260510011503 52 151 2.6 8.7 0.00 0.00 0.00 82 1006.2
20260510011004 52 128 3.5 10.4 0.00 0.00 0.00 82 1006.3
20260510010503 52 112 2.6 8.7 0.00 0.00 0.00 82 1006.2
20260510010003 52 134 3.5 8.7 0.00 0.00 0.00 81 1006.3
20260510004504 52 131 5.2 10.4 0.00 0.00 0.00 80 1006.0
20260510004003 52 136 5.2 11.3 0.00 0.00 0.00 80 1006.0
20260510003503 53 124 6.1 13.0 0.00 0.00 0.00 79 1006.0
20260510003004 53 143 4.3 11.3 0.00 0.00 0.00 79 1006.2
20260510002503 53 129 3.5 12.2 0.00 0.00 0.00 78 1006.1
20260510002004 53 126 5.2 13.0 0.00 0.00 0.00 78 1006.1
20260510001503 53 123 4.3 13.0 0.00 0.00 0.00 77 1006.0
20260510001004 54 139 5.2 12.2 0.00 0.00 0.00 76 1006.0
20260510000504 54 138 2.6 11.3 0.00 0.00 0.00 76 1006.1
20260510000003 54 139 2.6 12.2 0.00 0.00 0.00 75 1006.0
20260509235503 54 127 4.3 12.2 0.00 0.00 0.00 75 1006.0
20260509235003 54 139 2.6 13.9 0.00 0.00 0.00 75 1005.9
20260509234003 55 129 3.5 8.7 0.00 0.00 0.00 74 1005.9
20260509233503 55 112 6.1 15.6 0.00 0.00 0.00 74 1005.9
20260509232503 55 117 5.2 13.9 0.00 0.00 0.00 73 1005.9
20260509232004 55 120 4.3 14.8 0.00 0.00 0.00 72 1005.9
20260509231503 56 112 5.2 13.9 0.00 0.00 0.00 71 1005.9
20260509231004 56 113 1.7 10.4 0.00 0.00 0.00 71 1006.0
20260509230503 57 126 4.3 15.6 0.00 0.00 0.00 70 1006.0
20260509230003 57 137 4.3 13.0 0.00 0.00 0.00 70 1006.1
20260509225004 58 131 7.8 17.4 0.00 0.00 0.00 67 1006.3
20260509224503 58 134 1.7 18.2 0.00 0.00 0.00 68 1006.3
20260509224004 58 126 5.2 12.2 0.00 0.00 0.00 68 1006.2
20260509223003 58 124 4.3 20.0 0.00 0.00 0.00 67 1006.3